Weather History for Nenana, AK

Change the Weather History Date:

Wednesday, January 22, 2014

  Actual Average Record
Temperature  
Mean Temperature 38 °F -  
Max Temperature 46 °F -4 °F 53 °F (1981)
Min Temperature 30 °F -20 °F -36 °F (2011)
Degree Days  
Heating Degree Days 27    
Moisture  
Dew Point 29 °F    
Average Humidity 82    
Maximum Humidity 100    
Minimum Humidity 64    
Precipitation  
Precipitation 0.08 in - - ()
Sea Level Pressure  
Sea Level Pressure 29.74 in    
Wind  
Wind Speed 8 mph (ENE)    
Max Wind Speed 18 mph    
Max Gust Speed 28 mph    
Visibility 10 miles    
Events Rain    
Averages and records for this station are not official NWS values.
T = Trace of Precipitation, MM = Missing Value Source: NWS Daily Summary

Daily Weather History Graph

Daily Weather History Graph

Search for Another Location

Airport:

Trip Planner

Search our weather history database for the weather conditions in past years. The results will help you decide how hot, cold, wet, or windy it might be!

Date:

Astronomy

Jan. 22, 2014 Rise Set
Actual Time 10:09 AM AKST 4:07 PM AKST
Civil Twilight 9:04 AM AKST 5:11 PM AKST
Nautical Twilight 8:01 AM AKST 6:14 PM AKST
Astronomical Twilight 7:04 AM AKST 7:12 PM AKST
Moon 12:17 AM AKST (1/22) 10:37 AM AKST (1/22)
Length of Visible Light 8h 06m
Length of Day
5h 58m
Waning Gibbous, 64% of the Moon is Illuminated
Jan 22
Waning Gibbous
Jan 23
Last Quarter
Jan 30
New
Feb 6
First Quarter
Feb 14
Full

Hourly Weather History & Observations

Time (AKST) Temp. Windchill Dew Point Humidity Pressure Visibility Wind Dir Wind Speed Gust Speed Precip Events Conditions
12:22 AM 30.0 °F 26.5 °F 26.1 °F 85% 29.65 in 6.0 mi Variable 3.5 mph - 0.00 in   Overcast
12:51 AM 30.2 °F - 28.4 °F 93% 29.67 in 8.0 mi Calm Calm - 0.01 in   Overcast
12:53 AM 30.9 °F 26.2 °F 28.0 °F 89% 29.70 in 9.0 mi Variable 4.6 mph - 0.01 in   Overcast
1:46 AM 30.9 °F - 28.0 °F 89% 29.69 in 10.0 mi Calm Calm - N/A   Overcast
1:53 AM 30.9 °F - 28.0 °F 89% 29.73 in 10.0 mi Calm Calm - 0.00 in   Overcast
2:43 AM 30.0 °F 26.5 °F 27.0 °F 88% 29.71 in 10.0 mi NE 3.5 mph - 0.00 in   Overcast
3:53 AM 30.0 °F - 28.0 °F 92% 29.75 in 10.0 mi Calm Calm - N/A   Overcast
4:53 AM 30.9 °F 27.5 °F 28.0 °F 89% 29.77 in 10.0 mi East 3.5 mph - N/A   Overcast
5:53 AM 32.0 °F 26.4 °F 28.9 °F 88% 29.78 in 10.0 mi ENE 5.8 mph - N/A   Overcast
6:53 AM 32.0 °F 26.4 °F 28.9 °F 88% 29.78 in 10.0 mi ENE 5.8 mph - N/A   Overcast
7:53 AM 32.0 °F 26.4 °F 28.9 °F 88% 29.77 in 10.0 mi East 5.8 mph - N/A   Overcast
8:53 AM 30.9 °F 21.7 °F 28.0 °F 89% 29.76 in 10.0 mi East 11.5 mph - N/A   Mostly Cloudy
9:53 AM 30.9 °F 19.4 °F 27.0 °F 85% 29.74 in 10.0 mi East 17.3 mph - N/A   Clear
10:53 AM 32.0 °F 23.6 °F 28.0 °F 85% 29.72 in 10.0 mi East 10.4 mph - N/A   Clear
11:53 AM 33.1 °F 22.2 °F 27.0 °F 78% 29.71 in 10.0 mi East 17.3 mph - N/A   Clear
12:53 PM 34.0 °F 24.2 °F 26.1 °F 73% 29.70 in 10.0 mi ENE 15.0 mph 23.0 mph N/A   Clear
1:53 PM 34.0 °F 23.8 °F 26.1 °F 73% 29.66 in 10.0 mi East 16.1 mph 25.3 mph N/A   Partly Cloudy
2:53 PM 35.1 °F 24.5 °F 26.1 °F 70% 29.62 in 10.0 mi ENE 18.4 mph 25.3 mph N/A   Partly Cloudy
3:53 PM 34.0 °F 23.4 °F 26.1 °F 73% 29.58 in 10.0 mi East 17.3 mph - N/A   Clear
4:53 PM 32.0 °F 22.1 °F 26.1 °F 79% 29.57 in 10.0 mi East 13.8 mph - N/A   Partly Cloudy
5:53 PM 33.1 °F 23.9 °F 26.1 °F 75% 29.55 in 10.0 mi East 12.7 mph - N/A   Partly Cloudy
6:53 PM 35.1 °F 24.8 °F 26.1 °F 70% 29.54 in 10.0 mi ENE 17.3 mph 25.3 mph N/A   Mostly Cloudy
7:53 PM 36.0 °F 25.6 °F 25.0 °F 64% 29.51 in 10.0 mi ENE 18.4 mph - N/A   Partly Cloudy
8:53 PM 36.0 °F 25.6 °F 25.0 °F 64% 29.51 in 10.0 mi ENE 18.4 mph 27.6 mph N/A   Clear
9:53 PM 37.0 °F 27.0 °F 26.1 °F 65% 29.50 in 10.0 mi ENE 18.4 mph - N/A   Clear
10:53 PM 37.0 °F 28.5 °F 26.1 °F 65% 29.51 in 10.0 mi ENE 13.8 mph - N/A   Clear
11:53 PM 37.9 °F 28.9 °F 27.0 °F 65% 29.51 in 10.0 mi East 16.1 mph - N/A   Clear